{"data":{"norad_id":48668,"epoch":"2026-09-19T16:13:42.619872Z","epoch_age_seconds":108420,"freshness":"FRESH","line1":"1 48668U 21044AG  26262.67618773 -.00000615  00000+0 -80448-5 0  9998","line2":"2 48668  53.1605 281.1735 0001031  71.8621 288.2492 15.31707005293694","mean_motion":15.31707005,"eccentricity":0.0001031,"inclination_deg":53.1605,"raan_deg":281.1735,"arg_perigee_deg":71.8621,"mean_anomaly_deg":288.2492,"bstar":-8.0448e-6,"rev_number":29369,"period_min":94.012758007854,"perigee_km":470.01299669941,"apogee_km":471.42523083007,"semimajor_km":6848.8561137647,"source":"CELESTRAK","updated_at":"2026-09-20T09:00:39.240789Z"}}